| time (UTC) | temp F | wind direction | speed knots | gust knots | rain 1hr in | rain 24hr in | rain mn in | humidity % | barometer mb |
| 20260510120054 | 60 | 0.0 | 0.0 | 0.00 | 0.00 | 0.00 | 67 | 1013.8 | |
| 20260510114554 | 59 | 0.0 | 0.0 | 0.00 | 0.00 | 0.00 | 69 | 1014.1 | |
| 20260510113057 | 58 | 0.0 | 0.0 | 0.00 | 0.00 | 0.00 | 70 | 1014.4 | |
| 20260510111603 | 57 | 0.0 | 0.0 | 0.00 | 0.00 | 0.00 | 72 | 1014.5 | |
| 20260510110053 | 55 | 0.0 | 0.0 | 0.00 | 0.00 | 0.00 | 76 | 1014.5 | |
| 20260510104553 | 54 | 0.0 | 0.0 | 0.00 | 0.00 | 0.00 | 77 | 1014.6 | |
| 20260510103054 | 53 | 0.0 | 0.0 | 0.00 | 0.00 | 0.00 | 78 | 1014.7 | |
| 20260510101559 | 52 | 0.0 | 0.0 | 0.00 | 0.00 | 0.00 | 77 | 1015.1 | |
| 20260510100056 | 52 | 0.0 | 0.0 | 0.00 | 0.00 | 0.00 | 77 | 1015.4 | |
| 20260510094605 | 53 | 0.0 | 0.0 | 0.00 | 0.00 | 0.00 | 76 | 1015.6 | |
| 20260510093119 | 53 | 0.0 | 0.0 | 0.00 | 0.00 | 0.00 | 74 | 1015.6 | |
| 20260510091557 | 53 | 0.0 | 0.0 | 0.00 | 0.00 | 0.00 | 73 | 1015.7 | |
| 20260510090051 | 53 | 0.0 | 0.0 | 0.00 | 0.00 | 0.00 | 72 | 1015.9 | |
| 20260510084552 | 52 | 0.0 | 0.0 | 0.00 | 0.00 | 0.00 | 74 | 1015.9 | |
| 20260510083106 | 51 | 0.0 | 0.0 | 0.00 | 0.00 | 0.00 | 75 | 1016.0 | |
| 20260510081555 | 51 | 0.0 | 0.0 | 0.00 | 0.00 | 0.00 | 75 | 1016.0 | |
| 20260510080056 | 51 | 0.0 | 0.0 | 0.00 | 0.00 | 0.00 | 77 | 1016.0 | |
| 20260510074559 | 50 | 0.0 | 0.0 | 0.00 | 0.00 | 0.00 | 76 | 1016.1 | |
| 20260510073055 | 50 | 0.0 | 0.0 | 0.00 | 0.00 | 0.00 | 77 | 1016.2 | |
| 20260510071553 | 50 | 0.0 | 0.0 | 0.00 | 0.00 | 0.00 | 76 | 1016.2 | |
| 20260510070056 | 50 | 0.0 | 0.0 | 0.00 | 0.00 | 0.00 | 76 | 1016.1 | |
| 20260510064600 | 50 | 0.0 | 0.0 | 0.00 | 0.00 | 0.00 | 76 | 1016.3 | |
| 20260510063053 | 49 | 0.0 | 0.0 | 0.00 | 0.00 | 0.00 | 76 | 1016.5 | |
| 20260510061600 | 49 | 0.0 | 0.0 | 0.00 | 0.00 | 0.00 | 76 | 1016.6 | |
| 20260510060052 | 49 | 0.0 | 0.0 | 0.00 | 0.00 | 0.00 | 78 | 1016.5 | |
| 20260510054557 | 49 | 0.0 | 0.0 | 0.00 | 0.00 | 0.00 | 80 | 1016.6 | |
| 20260510053055 | 49 | 0.0 | 0.0 | 0.00 | 0.00 | 0.00 | 81 | 1017.0 | |
| 20260510051602 | 49 | 0.0 | 0.0 | 0.00 | 0.00 | 0.00 | 82 | 1017.1 | |
| 20260510050054 | 49 | 0.0 | 0.0 | 0.00 | 0.00 | 0.00 | 83 | 1017.2 | |
| 20260510044609 | 48 | 0.0 | 0.0 | 0.00 | 0.00 | 0.00 | 84 | 1017.3 | |
| 20260510043048 | 48 | 0.0 | 0.0 | 0.00 | 0.00 | 0.00 | 84 | 1017.4 | |
| 20260510041551 | 48 | 0.0 | 0.0 | 0.00 | 0.00 | 0.00 | 84 | 1017.6 | |
| 20260510040052 | 48 | 0.0 | 0.0 | 0.00 | 0.00 | 0.00 | 83 | 1017.8 | |
| 20260510034550 | 48 | 0.0 | 0.0 | 0.00 | 0.00 | 0.00 | 83 | 1018.0 | |
| 20260510033059 | 48 | 0.0 | 0.0 | 0.00 | 0.00 | 0.00 | 82 | 1018.0 | |
| 20260510031547 | 48 | 0.0 | 0.0 | 0.00 | 0.00 | 0.00 | 82 | 1018.1 | |
| 20260510024547 | 48 | 0.0 | 0.0 | 0.00 | 0.00 | 0.00 | 81 | 1018.2 | |
| 20260510023053 | 48 | 0.0 | 0.0 | 0.00 | 0.00 | 0.00 | 81 | 1018.5 | |
| 20260510021556 | 48 | 0.0 | 0.0 | 0.00 | 0.00 | 0.00 | 81 | 1018.7 | |
| 20260510020053 | 48 | 0.0 | 0.0 | 0.00 | 0.00 | 0.00 | 81 | 1018.8 | |
| 20260510014545 | 48 | 0.0 | 0.0 | 0.00 | 0.00 | 0.00 | 82 | 1018.8 | |
| 20260510013054 | 48 | 0.0 | 0.0 | 0.00 | 0.00 | 0.00 | 83 | 1018.9 | |
| 20260510011552 | 47 | 0.0 | 0.0 | 0.00 | 0.00 | 0.00 | 85 | 1019.2 | |
| 20260510010055 | 47 | 0.0 | 0.0 | 0.00 | 0.00 | 0.00 | 85 | 1019.4 | |
| 20260510004552 | 47 | 0.0 | 0.0 | 0.00 | 0.00 | 0.00 | 85 | 1019.7 | |
| 20260510003059 | 46 | 0.0 | 0.0 | 0.00 | 0.00 | 0.00 | 85 | 1019.9 | |
| 20260510001553 | 46 | 0.0 | 0.0 | 0.00 | 0.00 | 0.00 | 85 | 1020.2 | |
| 20260510000053 | 45 | 0.0 | 0.0 | 0.00 | 0.00 | 0.00 | 85 | 1020.3 | |
| 20260509234554 | 44 | 0.0 | 0.0 | 0.00 | 0.00 | 0.00 | 81 | 1020.5 | |
| 20260509233054 | 44 | 0.0 | 0.0 | 0.00 | 0.00 | 0.00 | 80 | 1020.7 | |
| 20260509231556 | 45 | 0.0 | 0.0 | 0.00 | 0.00 | 0.00 | 80 | 1020.8 | |
| 20260509230057 | 45 | 0.0 | 0.0 | 0.00 | 0.00 | 0.00 | 79 | 1020.9 | |
| 20260509224547 | 46 | 0.0 | 0.0 | 0.00 | 0.00 | 0.00 | 79 | 1021.2 | |
| 20260509223054 | 46 | 0.0 | 0.0 | 0.00 | 0.00 | 0.00 | 78 | 1021.3 | |
| 20260509221553 | 47 | 0.0 | 0.0 | 0.00 | 0.00 | 0.00 | 78 | 1021.4 | |
| 20260509220103 | 47 | 0.0 | 0.0 | 0.00 | 0.00 | 0.00 | 78 | 1021.5 | |
| 20260509214600 | 46 | 0.0 | 0.0 | 0.00 | 0.00 | 0.00 | 77 | 1021.6 | |
| 20260509213122 | 46 | 0.0 | 0.0 | 0.00 | 0.00 | 0.00 | 78 | 1021.5 | |
| 20260509211553 | 45 | 0.0 | 0.0 | 0.00 | 0.00 | 0.00 | 75 | 1021.5 | |
| 20260509210104 | 46 | 0.0 | 0.0 | 0.00 | 0.00 | 0.00 | 73 | 1021.7 | |
| 20260509204549 | 47 | 0.0 | 0.0 | 0.00 | 0.00 | 0.00 | 70 | 1021.7 | |
| 20260509203054 | 48 | 0.0 | 0.0 | 0.00 | 0.00 | 0.00 | 68 | 1021.7 | |
| 20260509201552 | 49 | 0.0 | 0.0 | 0.00 | 0.00 | 0.00 | 66 | 1021.7 | |
| 20260509200100 | 50 | 0.0 | 0.0 | 0.00 | 0.00 | 0.00 | 64 | 1021.7 | |
| 20260509194556 | 50 | 0.0 | 0.0 | 0.00 | 0.00 | 0.00 | 63 | 1021.7 | |
| 20260509193055 | 51 | 0.0 | 0.0 | 0.00 | 0.00 | 0.00 | 63 | 1021.8 | |
| 20260509191551 | 51 | 0.0 | 0.0 | 0.00 | 0.00 | 0.00 | 63 | 1021.7 | |
| 20260509190052 | 52 | 0.0 | 0.0 | 0.00 | 0.00 | 0.00 | 63 | 1021.6 | |
| 20260509184554 | 52 | 0.0 | 0.0 | 0.00 | 0.00 | 0.00 | 62 | 1021.6 | |
| 20260509183051 | 53 | 0.0 | 0.0 | 0.00 | 0.00 | 0.00 | 63 | 1021.7 | |
| 20260509181558 | 54 | 0.0 | 0.0 | 0.00 | 0.00 | 0.00 | 64 | 1021.6 | |
| 20260509180054 | 54 | 0.0 | 0.0 | 0.00 | 0.00 | 0.00 | 59 | 1021.8 | |
| 20260509174549 | 55 | 0.0 | 0.0 | 0.00 | 0.00 | 0.00 | 55 | 1021.7 | |
| 20260509173058 | 55 | 0.0 | 0.0 | 0.00 | 0.00 | 0.00 | 53 | 1021.7 | |
| 20260509171556 | 56 | 0.0 | 0.0 | 0.00 | 0.00 | 0.00 | 55 | 1021.8 | |
| 20260509170058 | 56 | 0.0 | 0.0 | 0.00 | 0.00 | 0.00 | 53 | 1021.9 | |
| 20260509164559 | 56 | 0.0 | 0.0 | 0.00 | 0.00 | 0.00 | 53 | 1021.8 | |
| 20260509163101 | 57 | 0.0 | 0.0 | 0.00 | 0.00 | 0.00 | 52 | 1021.9 | |
| 20260509161608 | 57 | 0.0 | 0.0 | 0.00 | 0.00 | 0.00 | 47 | 1022.0 | |
| 20260509160052 | 58 | 0.0 | 0.0 | 0.00 | 0.00 | 0.00 | 45 | 1022.2 | |
| 20260509154614 | 59 | 0.0 | 0.0 | 0.00 | 0.00 | 0.00 | 45 | 1022.3 | |
| 20260509153103 | 60 | 0.0 | 0.0 | 0.00 | 0.00 | 0.00 | 43 | 1022.3 | |
| 20260509151557 | 60 | 0.0 | 0.0 | 0.00 | 0.00 | 0.00 | 42 | 1022.4 | |
| 20260509150055 | 60 | 0.0 | 0.0 | 0.00 | 0.00 | 0.00 | 39 | 1022.6 | |
| 20260509144601 | 60 | 0.0 | 0.0 | 0.00 | 0.00 | 0.00 | 38 | 1022.6 | |
| 20260509143056 | 61 | 0.0 | 0.0 | 0.00 | 0.00 | 0.00 | 40 | 1022.8 | |
| 20260509141556 | 61 | 0.0 | 0.0 | 0.00 | 0.00 | 0.00 | 38 | 1022.9 | |
| 20260509140104 | 61 | 0.0 | 0.0 | 0.00 | 0.00 | 0.00 | 39 | 1023.0 | |
| 20260509134552 | 61 | 0.0 | 0.0 | 0.00 | 0.00 | 0.00 | 41 | 1023.2 | |
| 20260509133056 | 61 | 0.0 | 0.0 | 0.00 | 0.00 | 0.00 | 42 | 1023.5 | |
| 20260509131554 | 62 | 0.0 | 0.0 | 0.00 | 0.00 | 0.00 | 40 | 1023.7 | |
| 20260509130051 | 62 | 0.0 | 0.0 | 0.00 | 0.00 | 0.00 | 41 | 1023.7 | |
| 20260509124549 | 62 | 0.0 | 0.0 | 0.00 | 0.00 | 0.00 | 38 | 1023.8 | |
| 20260509123056 | 63 | 0.0 | 0.0 | 0.00 | 0.00 | 0.00 | 40 | 1024.2 | |
| 20260509121605 | 63 | 0.0 | 0.0 | 0.00 | 0.00 | 0.00 | 37 | 1024.3 |